This is the latest recevied weather packets stored in our database for station/object XE2KK-10. If no packets are shown the sender has not sent any weather packets the latest 10 day(s).
| Time | Temp. | Humidity | Pressure | Rain* | Wind** | Luminosity | Snow |
|---|---|---|---|---|---|---|---|
| 1777479253 | 30° C | 65% | 1012.5 hPa | 0 mm | - | 786 W/m² | - |
| 1777478953 | 30° C | 66% | 1012.3 hPa | 0 mm | - | 745 W/m² | - |
| 1777478656 | 29.44° C | 68% | 1012.3 hPa | 0 mm | - | 690 W/m² | - |
| 1777478353 | 30° C | 67% | 1012.4 hPa | 0 mm | - | 596 W/m² | - |
| 1777478053 | 29.44° C | 69% | 1012.5 hPa | 0 mm | - | 650 W/m² | - |
| 1777477752 | 28.89° C | 70% | 1012.3 hPa | 0 mm | - | 325 W/m² | - |
| 1777477452 | 28.33° C | 71% | 1012.3 hPa | 0 mm | - | 444 W/m² | - |
| 1777477153 | 28.33° C | 72% | 1012.5 hPa | 0 mm | - | 216 W/m² | - |
| 1777476853 | 28.33° C | 71% | 1012.4 hPa | 0 mm | - | 265 W/m² | - |
| 1777476553 | 27.78° C | 71% | 1012.3 hPa | 0 mm | - | 255 W/m² | - |
| 1777476253 | 28.33° C | 71% | 1012.5 hPa | 0 mm | - | 184 W/m² | - |
| 1777475952 | 28.33° C | 71% | 1012.2 hPa | 0 mm | - | 197 W/m² | - |
| 1777475652 | 27.78° C | 72% | 1012.4 hPa | 0 mm | - | 229 W/m² | - |
| 1777475352 | 27.78° C | 72% | 1012.6 hPa | 0 mm | - | 219 W/m² | - |
| 1777475053 | 27.78° C | 72% | 1012.2 hPa | 0 mm | - | 206 W/m² | - |
| 1777474753 | 28.33° C | 71% | 1012.2 hPa | 0 mm | - | 227 W/m² | - |
| 1777474453 | 28.33° C | 71% | 1012.3 hPa | 0 mm | - | 264 W/m² | - |
| 1777474152 | 27.78° C | 72% | 1012.3 hPa | 0 mm | - | 250 W/m² | - |
| 1777473852 | 28.33° C | 71% | 1012.2 hPa | 0 mm | - | 203 W/m² | - |
| 1777473553 | 28.33° C | 71% | 1012.1 hPa | 0 mm | - | 190 W/m² | - |
| 1777473253 | 28.33° C | 71% | 1012 hPa | 0 mm | - | 297 W/m² | - |
| 1777472953 | 27.78° C | 72% | 1012.3 hPa | 0 mm | - | 364 W/m² | - |
| 1777472653 | 27.78° C | 72% | 1012.2 hPa | 0 mm | - | 254 W/m² | - |
| 1777472352 | 27.78° C | 71% | 1011.9 hPa | 0 mm | - | 161 W/m² | - |
| 1777472052 | 27.78° C | 72% | 1011.9 hPa | 0 mm | - | 300 W/m² | - |
* Rain latest hour (hover to see other rain measurements)
** Current wind speed in m/s (hover to see current wind gust speed)